Rotterdam, Netherlands

6:22 PM CEST on May 22, 2017 (GMT +0200)
Rotterdam

Weather History for EHRD - May, 2013

Change the Weather History Date:

Saturday, May 25, 2013

  Actual Average Record
Temperature  
Mean Temperature 46 °F -  
Max Temperature 54 °F 65 °F 80 °F (2012)
Min Temperature 38 °F 50 °F 38 °F (2013)
Degree Days  
Heating Degree Days 19    
Moisture  
Dew Point 42 °F    
Average Humidity 84    
Maximum Humidity 100    
Minimum Humidity 68    
Precipitation  
Precipitation 0.16 in - - ()
Sea Level Pressure  
Sea Level Pressure 30.02 in    
Wind  
Wind Speed 7 mph ()    
Max Wind Speed 16 mph    
Max Gust Speed -    
Visibility 6.8 miles    
Events Rain    
Averages and records for this station are not official NWS values.
T = Trace of Precipitation, MM = Missing Value Source: Averaged Metar Reports

Daily Weather History Graph

Daily Weather History Graph

Search for Another Location

Airport or City:

Trip Planner

Search our weather history database for the weather conditions in past years. The results will help you decide how hot, cold, wet, or windy it might be!

Date:

Astronomy

May. 25, 2013 Rise Set
Actual Time 5:35 AM CEST 9:43 PM CEST
Civil Twilight 4:50 AM CEST 10:28 PM CEST
Nautical Twilight 3:46 AM CEST 11:34 PM CEST
Astronomical Twilight 2:11 AM CEST 1:06 AM CEST
Moon 10:13 PM CEST (5/25) 5:50 AM CEST (5/25)
Length of Visible Light 17h 38m
Length of Day
16h 08m
Full, 100% of the Moon is Illuminated
May 25
Full
May 31
Last Quarter
Jun 8
New
Jun 16
First Quarter
Jun 23
Full

Hourly Weather History & Observations

Time (CEST) Temp. Windchill Dew Point Humidity Pressure Visibility Wind Dir Wind Speed Gust Speed Precip Events Conditions
12:25 AM 44.6 °F 41.4 °F 41.0 °F 87% 29.98 in 6.2 mi East 5.8 mph - N/A   Partly Cloudy
12:55 AM 44.6 °F 42.2 °F 41.0 °F 87% 29.98 in 6.2 mi East 4.6 mph - N/A   Partly Cloudy
1:25 AM 42.8 °F 38.0 °F 41.0 °F 93% 29.98 in 6.2 mi NE 8.1 mph - N/A   Partly Cloudy
1:55 AM 42.8 °F 39.3 °F 39.2 °F 87% 29.98 in 6.2 mi NE 5.8 mph - N/A   Unknown
2:00 AM 42 °F - 40 °F 90% 29.99 in 19 mi NE 6.7 mph - -   Partly Cloudy
2:25 AM 41.0 °F 38.0 °F 39.2 °F 93% 29.98 in 6.2 mi NNE 4.6 mph - N/A   Unknown
2:55 AM 41.0 °F 39.0 °F 39.2 °F 93% 29.98 in 6.2 mi North 3.5 mph - N/A   Unknown
3:25 AM 41.0 °F 37.1 °F 39.2 °F 93% 29.98 in 6.2 mi North 5.8 mph - N/A   Unknown
3:55 AM 41.0 °F 39.0 °F 39.2 °F 93% 29.98 in 6.2 mi North 3.5 mph - N/A   Unknown
4:25 AM 39.2 °F 37.0 °F 37.4 °F 93% 29.98 in 6.2 mi North 3.5 mph - N/A   Unknown
4:55 AM 39.2 °F 37.0 °F 39.2 °F 100% 29.98 in 6.2 mi NNE 3.5 mph - N/A   Unknown
5:00 AM 40 °F - 39 °F 93% 30.00 in 10 mi NNE 4.5 mph - -  
5:25 AM 41.0 °F 38.0 °F 39.2 °F 93% 29.98 in 6.2 mi North 4.6 mph - N/A   Unknown
5:55 AM 39.2 °F 37.0 °F 39.2 °F 100% 29.98 in 6.2 mi North 3.5 mph - N/A   Unknown
6:25 AM 39.2 °F 37.0 °F 39.2 °F 100% 30.01 in 4.3 mi NNW 3.5 mph - N/A   Unknown
6:55 AM 39.2 °F 37.0 °F 39.2 °F 100% 30.01 in 3.7 mi NNW 3.5 mph - N/A   Unknown
7:25 AM 42.8 °F - 42.8 °F 100% 30.01 in 6.2 mi Variable 1.2 mph - N/A   Unknown
7:55 AM 44.6 °F - 42.8 °F 93% 30.01 in 6.2 mi Variable 1.2 mph - N/A   Unknown
8:00 AM 46 °F - 43 °F 86% 30.03 in 6 mi NW 2.2 mph - -   Partly Cloudy
8:25 AM 48.2 °F - 44.6 °F 87% 30.01 in 6.2 mi NNW 4.6 mph - N/A   Unknown
8:55 AM 48.2 °F - 42.8 °F 82% 30.01 in 6.2 mi NNW 9.2 mph - N/A   Mostly Cloudy
9:25 AM 50.0 °F - 42.8 °F 76% 30.04 in 6.2 mi North 8.1 mph - N/A   Partly Cloudy
9:55 AM 50.0 °F - 44.6 °F 82% 30.04 in 6.2 mi NNW 9.2 mph - N/A   Mostly Cloudy
10:25 AM 51.8 °F - 44.6 °F 76% 30.04 in 6.2 mi NW 9.2 mph - N/A   Scattered Clouds
10:55 AM 51.8 °F - 44.6 °F 76% 30.04 in 6.2 mi NNW 11.5 mph - N/A   Mostly Cloudy
11:00 AM 52 °F - 45 °F 69% 30.04 in 13 mi NNW 11.2 mph - -   Overcast
11:25 AM 53.6 °F - 46.4 °F 77% 30.04 in 6.2 mi NW 11.5 mph - N/A   Mostly Cloudy
11:55 AM 51.8 °F - 44.6 °F 76% 30.04 in 6.2 mi NNW 10.4 mph - N/A   Mostly Cloudy
12:25 PM 53.6 °F - 46.4 °F 77% 30.04 in 6.2 mi NNW 11.5 mph - N/A   Scattered Clouds
12:55 PM 53.6 °F - 44.6 °F 72% 30.04 in 6.2 mi NNW 11.5 mph - N/A   Scattered Clouds
1:25 PM 51.8 °F - 44.6 °F 76% 30.04 in 6.2 mi NNW 12.7 mph - N/A   Mostly Cloudy
1:55 PM 51.8 °F - 44.6 °F 76% 30.04 in 6.2 mi NNW 13.8 mph - N/A   Overcast
2:00 PM 51 °F - 44 °F 68% 30.05 in 12 mi NNW 13.4 mph - -   Partly Cloudy
2:25 PM 51.8 °F - 46.4 °F 82% 30.04 in 6.2 mi NNW 13.8 mph - N/A   Mostly Cloudy
2:55 PM 51.8 °F - 44.6 °F 76% 30.04 in 6.2 mi NNW 16.1 mph - N/A   Overcast
3:25 PM 50.0 °F - 42.8 °F 76% 30.04 in 6.2 mi NNW 12.7 mph - N/A   Mostly Cloudy
3:55 PM 51.8 °F - 42.8 °F 71% 30.04 in 6.2 mi NW 13.8 mph - N/A   Mostly Cloudy
4:25 PM 51.8 °F - 44.6 °F 76% 30.04 in 6.2 mi NNW 16.1 mph - N/A   Mostly Cloudy
4:55 PM 51.8 °F - 42.8 °F 71% 30.04 in 6.2 mi NNW 13.8 mph - N/A   Mostly Cloudy
5:00 PM 50 °F - 43 °F 70% 30.05 in 12 mi NNW 13.4 mph - -   Overcast
5:25 PM 50.0 °F - 41.0 °F 71% 30.04 in 6.2 mi NNW 12.7 mph - N/A   Mostly Cloudy
5:55 PM 50.0 °F - 41.0 °F 71% 30.04 in 6.2 mi NW 13.8 mph - N/A   Overcast
6:25 PM 48.2 °F - 41.0 °F 76% 30.04 in 6.2 mi NW 13.8 mph - N/A   Overcast
6:55 PM 48.2 °F - 41.0 °F 76% 30.04 in 6.2 mi NW 12.7 mph - N/A   Overcast
7:25 PM 48.2 °F - 41.0 °F 76% 30.04 in 6.2 mi NNW 12.7 mph - N/A   Overcast
7:55 PM 48.2 °F - 42.8 °F 82% 30.04 in 6.2 mi NNW 12.7 mph - N/A   Overcast
8:00 PM 47 °F - 43 °F 80% 30.04 in 9 mi NNW 11.2 mph - -   Partly Cloudy
8:25 PM 48.2 °F - 42.8 °F 82% 30.04 in 6.2 mi NW 11.5 mph - N/A   Overcast
8:55 PM 46.4 °F 40.7 °F 42.8 °F 87% 30.04 in 6.2 mi NNW 12.7 mph - N/A   Overcast
9:25 PM 46.4 °F 41.5 °F 42.8 °F 87% 30.01 in 6.2 mi NNW 10.4 mph - N/A   Overcast
9:55 PM 46.4 °F 41.9 °F 42.8 °F 87% 30.01 in 6.2 mi NNW 9.2 mph - N/A   Overcast
10:25 PM 48.2 °F - 42.8 °F 82% 30.01 in 6.2 mi NNW 9.2 mph - N/A Rain Light Rain
10:55 PM 46.4 °F 41.5 °F 44.6 °F 93% 30.01 in 6.2 mi NW 10.4 mph - N/A Rain Light Rain
11:00 PM 46 °F - 44 °F 92% 30.02 in 6 mi NW 8.9 mph - - Rain Light Rain Showers
11:25 PM 46.4 °F 41.9 °F 44.6 °F 93% 30.01 in 6.2 mi NW 9.2 mph - N/A Rain Light Rain
11:55 PM 46.4 °F 41.5 °F 44.6 °F 93% 30.01 in 6.2 mi NW 10.4 mph - N/A Rain Light Rain